TimeCST,TemperatureF,Dew PointF,Humidity,Sea Level PressureIn,VisibilityMPH,Wind Direction,Wind SpeedMPH,Gust SpeedMPH,PrecipitationIn,Events,Conditions,WindDirDegrees,DateUTC
12:53 AM,33.1,28.9,85,30.35,10.0,Calm,Calm,-,N/A,,Clear,0,2013-01-07 06:53:00
1:53 AM,30.9,28.0,89,30.34,10.0,Calm,Calm,-,N/A,,Clear,0,2013-01-07 07:53:00
2:53 AM,30.9,28.0,89,30.33,10.0,Calm,Calm,-,N/A,,Clear,0,2013-01-07 08:53:00
3:53 AM,30.0,28.0,92,30.33,10.0,Calm,Calm,-,N/A,,Clear,0,2013-01-07 09:53:00
4:53 AM,28.9,26.1,89,30.32,10.0,Calm,Calm,-,N/A,,Clear,0,2013-01-07 10:53:00
5:53 AM,28.9,27.0,92,30.33,9.0,Calm,Calm,-,N/A,,Clear,0,2013-01-07 11:53:00
6:53 AM,28.0,26.1,92,30.36,9.0,Calm,Calm,-,N/A,,Clear,0,2013-01-07 12:53:00
7:53 AM,28.9,27.0,92,30.37,8.0,Calm,Calm,-,N/A,,Clear,0,2013-01-07 13:53:00
8:53 AM,37.9,34.0,86,30.38,9.0,ENE,3.5,-,N/A,,Clear,70,2013-01-07 14:53:00
9:53 AM,43.0,34.0,71,30.38,10.0,ESE,9.2,-,N/A,,Clear,120,2013-01-07 15:53:00
10:53 AM,46.9,34.0,61,30.38,10.0,SE,5.8,-,N/A,,Clear,140,2013-01-07 16:53:00
11:53 AM,51.1,33.1,50,30.32,10.0,Variable,6.9,-,N/A,,Clear,0,2013-01-07 17:53:00
12:53 PM,53.1,32.0,45,30.27,10.0,ENE,6.9,-,N/A,,Clear,60,2013-01-07 18:53:00
1:53 PM,55.0,32.0,42,30.25,10.0,SE,5.8,-,N/A,,Clear,140,2013-01-07 19:53:00
2:53 PM,55.9,30.0,37,30.23,10.0,Variable,5.8,-,N/A,,Clear,0,2013-01-07 20:53:00
3:53 PM,55.0,28.9,37,30.21,10.0,ESE,4.6,-,N/A,,Clear,110,2013-01-07 21:53:00
4:53 PM,52.0,32.0,47,30.20,10.0,ESE,3.5,-,N/A,,Clear,110,2013-01-07 22:53:00
5:53 PM,45.0,36.0,71,30.20,10.0,ESE,3.5,-,N/A,,Clear,110,2013-01-07 23:53:00
6:53 PM,46.9,34.0,61,30.19,10.0,East,5.8,-,N/A,,Clear,100,2013-01-08 00:53:00
7:53 PM,45.0,34.0,65,30.20,10.0,East,3.5,-,N/A,,Clear,100,2013-01-08 01:53:00
8:53 PM,41.0,35.1,79,30.19,10.0,Calm,Calm,-,N/A,,Clear,0,2013-01-08 02:53:00
9:53 PM,39.9,35.1,83,30.18,10.0,Calm,Calm,-,N/A,,Clear,0,2013-01-08 03:53:00
10:53 PM,39.0,35.1,86,30.17,10.0,Calm,Calm,-,N/A,,Scattered Clouds,0,2013-01-08 04:53:00
11:53 PM,43.0,36.0,76,30.14,10.0,ENE,3.5,-,N/A,,Scattered Clouds,60,2013-01-08 05:53:00